This is the latest recevied weather packets stored in our database for station/object N1ORT. If no packets are shown the sender has not sent any weather packets the latest 1 day(s).
| Time | Temp. | Humidity | Pressure | Rain* | Wind** | Luminosity | Snow |
|---|---|---|---|---|---|---|---|
| 1778005314 | 28.89° C | 36% | 1004.1 hPa | 0 mm | 0.89 m/s, 304° | 823 W/m² | - |
| 1778005010 | 28.33° C | 37% | 1004.2 hPa | 0 mm | 0.89 m/s, 88° | 912 W/m² | - |
| 1778004708 | 28.33° C | 38% | 1004.2 hPa | 0 mm | 2.68 m/s, 279° | 865 W/m² | - |
| 1778004404 | 28.33° C | 38% | 1004.2 hPa | 0 mm | 2.24 m/s, 262° | 839 W/m² | - |
| 1778004102 | 28.33° C | 37% | 1004.8 hPa | 0 mm | 1.34 m/s, 97° | 881 W/m² | - |
| 1778003797 | 28.33° C | 38% | 1004.7 hPa | 0 mm | 1.79 m/s, 254° | 864 W/m² | - |
| 1778003494 | 28.33° C | 38% | 1004.8 hPa | 0 mm | 2.68 m/s, 248° | 838 W/m² | - |
| 1778003191 | 27.78° C | 38% | 1004.6 hPa | 0 mm | 0.89 m/s, 29° | 839 W/m² | - |
| 1778002887 | 28.33° C | 37% | 1004.9 hPa | 0 mm | 4.02 m/s, 295° | 875 W/m² | - |
| 1778002583 | 27.78° C | 38% | 1004.9 hPa | 0 mm | 1.79 m/s, 293° | 843 W/m² | - |
| 1778002280 | 27.78° C | 38% | 1004.8 hPa | 0 mm | 4.47 m/s, 249° | 875 W/m² | - |
| 1778001978 | 27.78° C | 41% | 1005.1 hPa | 0 mm | 0.89 m/s, 341° | 875 W/m² | - |
| 1778001675 | 27.78° C | 39% | 1005 hPa | 0 mm | 1.34 m/s, 75° | 909 W/m² | - |
| 1778001369 | 27.78° C | 41% | 1005.3 hPa | 0 mm | 2.24 m/s, 260° | 924 W/m² | - |
| 1778001067 | 27.22° C | 42% | 1005.3 hPa | 0 mm | 1.34 m/s, 46° | 856 W/m² | - |
| 1778000763 | 27.22° C | 41% | 1005.3 hPa | 0 mm | 1.34 m/s, 21° | 939 W/m² | - |
| 1778000459 | 26.67° C | 43% | 1005.5 hPa | 0 mm | 1.34 m/s, 299° | 903 W/m² | - |
| 1778000154 | 27.22° C | 41% | 1005.4 hPa | 0 mm | 1.34 m/s, 296° | 913 W/m² | - |
| 1777999851 | 27.22° C | 42% | 1005.7 hPa | 0 mm | 1.79 m/s, 271° | 920 W/m² | - |
| 1777999547 | 27.22° C | 44% | 1005.9 hPa | 0 mm | 1.34 m/s, 276° | 917 W/m² | - |
| 1777999245 | 26.67° C | 46% | 1005.7 hPa | 0 mm | 1.34 m/s, 265° | 924 W/m² | - |
| 1777998943 | 26.67° C | 45% | 1006.1 hPa | 0 mm | 1.34 m/s, 142° | 940 W/m² | - |
| 1777998639 | 25.56° C | 42% | 1006.1 hPa | 0 mm | 1.79 m/s, 326° | 925 W/m² | - |
| 1777998332 | 26.11° C | 48% | 1006.1 hPa | 0 mm | 0.45 m/s, 254° | 926 W/m² | - |
| 1777998030 | 26.11° C | 48% | 1006.1 hPa | 0 mm | 0.45 m/s, 141° | 908 W/m² | - |
* Rain latest hour (hover to see other rain measurements)
** Current wind speed in m/s (hover to see current wind gust speed)